FW0606 Weather Reports


Display with metric or nautical units.
time (UTC)temp
F
wind
direction
speed
MPH
gust
MPH
rain 1hr
in
rain 24hr
in
rain mn
in
humidity
%
barometer
mb
20180924211555 81 184 1.0 5.0 0.00 0.01 0.01 74 1010.7
20180924210100 80 198 1.0 4.0 0.00 0.01 0.01 75 1011.0
20180924204555 80 207 1.0 3.0 0.00 0.01 0.01 76 1010.9
20180924203032 80 198 1.0 5.0 0.00 0.01 0.01 76 1011.1
20180924201602 80 279 0.0 4.0 0.00 0.01 0.01 76 1011.1
20180924200058 80 306 1.0 4.0 0.00 0.01 0.01 77 1011.2
20180924194542 80 235 0.0 4.0 0.00 0.01 0.01 78 1011.5
20180924193028 78 195 2.0 5.0 0.00 0.01 0.01 79 1011.8
20180924191615 78 246 0.0 5.0 0.00 0.01 0.01 82 1012.1
20180924190024 77 255 1.0 4.0 0.00 0.01 0.01 82 1012.3
20180924184534 77 198 1.0 4.0 0.00 0.01 0.01 82 1012.5
20180924183034 78 230 1.0 3.0 0.00 0.01 0.01 83 1012.6
20180924181534 77 259 1.0 3.0 0.00 0.01 0.01 84 1012.6
20180924180030 76 213 1.0 4.0 0.00 0.01 0.01 83 1012.8
20180924174538 76 213 0.0 2.0 0.00 0.01 0.01 86 1012.9
20180924173019 75 219 0.0 3.0 0.00 0.01 0.01 87 1013.0
20180924171533 75 219 0.0 4.0 0.00 0.01 0.01 87 1013.3
20180924170015 75 219 0.0 4.0 0.01 0.01 0.01 88 1013.3
20180924164540 75 226 0.0 3.0 0.01 0.01 0.01 88 1013.4
20180924163008 74 226 1.0 3.0 0.01 0.01 0.01 89 1013.3
20180924161510 75 313 0.0 3.0 0.01 0.01 0.01 89 1013.5
20180924160008 74 229 1.0 3.0 0.00 0.00 0.00 89 1013.3
20180924154503 74 228 0.0 3.0 0.00 0.00 0.00 90 1013.3
20180924153133 74 229 0.0 3.0 0.00 0.00 0.00 91 1013.1
20180924151610 74 149 0.0 2.0 0.00 0.00 0.00 92 1013.1
20180924150109 73 22 0.0 1.0 0.00 0.00 0.00 94 1012.9
20180924144616 72 24 0.0 2.0 0.00 0.00 0.00 96 1012.8
20180924143053 71 117 0.0 0.0 0.00 0.00 0.00 96 1012.9
20180924141549 71 117 0.0 1.0 0.00 0.00 0.00 97 1012.8
20180924140050 71 287 0.0 2.0 0.00 0.00 0.00 97 1012.7
20180924134548 70 286 0.0 2.0 0.00 0.01 0.00 97 1012.6
20180924133115 70 78 0.0 0.0 0.00 0.01 0.00 97 1012.6
20180924131604 70 5 0.0 0.0 0.00 0.01 0.00 97 1012.6
20180924130051 70 5 0.0 0.0 0.00 0.01 0.00 97 1012.3
20180924124632 70 5 0.0 0.0 0.00 0.01 0.00 97 1012.5
20180924123051 70 5 0.0 0.0 0.00 0.01 0.00 97 1012.2
20180924121556 70 5 0.0 0.0 0.00 0.01 0.00 97 1012.4
20180924120041 70 5 0.0 0.0 0.00 0.01 0.00 97 1012.3
20180924114602 70 5 0.0 0.0 0.00 0.01 0.00 97 1012.1
20180924113043 70 5 0.0 0.0 0.00 0.01 0.00 97 1012.1
20180924111531 70 5 0.0 0.0 0.00 0.01 0.00 97 1012.0
20180924110031 70 5 0.0 0.0 0.00 0.01 0.00 97 1011.8
20180924104541 70 5 0.0 0.0 0.00 0.02 0.00 97 1011.9
20180924103051 70 5 0.0 0.0 0.00 0.02 0.00 97 1011.7
20180924101530 70 5 0.0 0.0 0.00 0.02 0.00 97 1011.7
20180924100044 70 5 0.0 0.0 0.00 0.02 0.00 97 1011.6
20180924094532 70 5 0.0 0.0 0.00 0.02 0.00 97 1011.6
20180924093056 70 5 0.0 0.0 0.00 0.02 0.00 97 1011.6
20180924091615 70 5 0.0 0.0 0.00 0.02 0.00 97 1011.6
20180924090045 70 5 0.0 0.0 0.00 0.02 0.00 97 1011.8
20180924084534 70 5 0.0 0.0 0.00 0.02 0.00 97 1011.7
20180924083025 70 5 0.0 0.0 0.00 0.02 0.00 97 1011.8
20180924081603 70 5 0.0 0.0 0.00 0.02 0.00 97 1011.8
20180924080047 70 5 0.0 0.0 0.00 0.02 0.00 97 1011.8
20180924074545 70 5 0.0 1.0 0.00 0.02 0.00 97 1011.9
20180924073043 70 5 0.0 2.0 0.00 0.02 0.00 97 1012.0
20180924071526 70 5 0.0 2.0 0.00 0.02 0.00 96 1011.9
20180924070053 70 5 0.0 2.0 0.00 0.02 0.00 96 1011.9
20180924064520 70 5 0.0 2.0 0.00 0.02 0.00 96 1012.0
20180924063019 70 5 0.0 0.0 0.00 0.02 0.00 96 1011.9
20180924061530 70 5 0.0 1.0 0.00 0.02 0.00 96 1012.0
20180924060035 70 5 0.0 1.0 0.00 0.02 0.00 96 1012.2
20180924054519 70 5 0.0 1.0 0.00 0.03 0.00 96 1012.3
20180924053023 70 5 0.0 2.0 0.00 0.03 0.00 96 1012.3
20180924051512 69 5 0.0 1.0 0.00 0.03 0.00 96 1012.3
20180924050010 70 5 0.0 3.0 0.00 0.03 0.00 96 1012.5
20180924044516 70 5 0.0 2.0 0.00 0.04 0.03 96 1012.4
20180924043016 70 5 0.0 1.0 0.00 0.04 0.03 96 1012.4
20180924041507 70 5 0.0 3.0 0.00 0.04 0.03 96 1012.3
20180924040007 70 5 0.0 2.0 0.00 0.04 0.03 96 1012.4
20180924034508 69 5 0.0 3.0 0.00 0.05 0.03 96 1012.5
20180924033017 69 13 1.0 3.0 0.00 0.05 0.03 96 1012.4
20180924031515 69 13 0.0 3.0 0.00 0.05 0.03 96 1012.5
20180924030006 69 12 0.0 2.0 0.00 0.05 0.03 96 1012.5
20180924024504 69 12 0.0 3.0 0.00 0.06 0.03 96 1012.4
20180924023009 69 12 1.0 4.0 0.00 0.06 0.03 96 1012.2
20180924021516 69 32 2.0 4.0 0.00 0.06 0.03 96 1012.2
20180924020003 69 5 0.0 4.0 0.00 0.06 0.03 96 1012.1
20180924014503 69 14 1.0 5.0 0.00 0.07 0.03 95 1012.0
20180924013004 69 25 0.0 4.0 0.00 0.07 0.03 95 1011.8
20180924011501 69 13 1.0 4.0 0.00 0.07 0.03 95 1011.7
20180924010158 69 299 0.0 4.0 0.00 0.07 0.03 95 1011.6
20180924004625 69 329 1.0 4.0 0.00 0.08 0.03 95 1011.7
20180924003127 70 17 0.0 5.0 0.00 0.08 0.03 94 1011.5
20180924001600 70 313 0.0 3.0 0.00 0.08 0.03 94 1011.7
20180924000110 70 15 0.0 3.0 0.00 0.08 0.03 93 1011.7
20180923234659 70 14 1.0 5.0 0.00 0.13 0.03 93 1011.7
20180923233139 70 33 1.0 6.0 0.00 0.13 0.03 93 1011.7
20180923231624 70 17 1.0 5.0 0.00 0.13 0.03 93 1011.8
20180923230105 70 355 2.0 6.0 0.00 0.13 0.03 94 1011.9
20180923224554 70 12 1.0 5.0 0.00 0.14 0.03 94 1011.9
20180923223101 70 306 0.0 3.0 0.00 0.14 0.03 95 1011.9
20180923221625 69 342 1.0 4.0 0.00 0.14 0.03 95 1011.9
20180923220122 70 11 1.0 5.0 0.00 0.14 0.03 94 1011.9
20180923214600 70 30 1.0 5.0 0.00 0.14 0.03 93 1012.1
20180923213058 70 336 1.0 5.0 0.00 0.14 0.03 91 1012.3